Hourly Weather Roundup
Issued by NWS Central Illinois

Home | Current Version | Previous Version | Text Only | Print | Product List | Glossary On
Versions: 1 2 3 4 5 6 7 8 9 10 11 12 13 14 15 16 17 18 19 20 21 22 23 24 25 26 27 28 29 30 31 32 33 34 35 36 37 38 39 40 41 42 43 44 45 46 47 48 49 50
000
NZUS43 KILX 161610
HWRILX

AREA WEATHER ROUNDUP
NATIONAL WEATHER SERVICE, LINCOLN IL
1100 AM CDT WED APR 16 2014


CITY           SKY/WX    TMP DP  RH WIND       PRES   REMARKS
BLOOMINGTON    SUNNY     46  26  46 S24G31    30.27S
CHAMPAIGN      SUNNY     46  28  49 S18       30.30F
DANVILLE       SUNNY     43  26  50 SE16      30.31S WCI  35
DECATUR        SUNNY     46  26  45 S21G26    30.29F
FLORA          SUNNY     45  26  47 SE16      30.35S
GALESBURG      MOSUNNY   47  30  51 SE16G28   30.16S
JACKSONVILLE   SUNNY     49  28  44 SE18G28   30.22S
LACON          PTSUNNY   46  27  47 S21G28    30.22F
LAWRENCEVILLE  SUNNY     45  26  47 SE15G22   30.37S
LITCHFIELD     SUNNY     45  29  53 SE18G26   30.26F
$$


CITY           SKY/WX    TMP DP  RH WIND       PRES   REMARKS
LINCOLN        SUNNY     48  29  47 S22G30    30.26F
MACOMB         MOSUNNY   48  30  50 S21G30    30.18S
MATTOON        SUNNY     44  26  49 S14G23    30.31F
MT CARMEL AP   SUNNY     46  27  46 SE12G17   30.36S
OLNEY-NOBLE AP SUNNY     43  28  56 SE14      30.35S
PARIS          SUNNY     44  29  54 SE16      30.34F
PEORIA         MOSUNNY   48  26  42 S23G32    30.21F
PONTIAC        SUNNY     45  30  57 S21G31    30.27F
RANTOUL        SUNNY     44  29  54 S16       30.32S
ROBINSON       SUNNY     47  29  49 SE12G18   30.37S
SPRINGFIELD    SUNNY     49  26  41 S23G33    30.26R
TAYLORVILLE    SUNNY     45  28  53 SE17G25   30.27S
$$

...REGIONAL REPORTS...


CITY           SKY/WX    TMP DP  RH WIND       PRES   REMARKS
CHICAGO O`HARE CLOUDY    43  22  43 S20       30.28F WCI  34
KANKAKEE       SUNNY     44  27  50 S14G23    30.32F
MOLINE         PTSUNNY   48  26  42 S17G29    30.14S
MOUNT VERNON   MOSUNNY   46  21  36 SE10G20   30.34S
PITTSFIELD     SUNNY     50  29  44 SE21      30.18S
QUINCY         SUNNY     49  26  41 S22G28    30.13F
ROCKFORD       CLOUDY    43  26  51 S22G31    30.24F WCI  34
$$


CITY           SKY/WX    TMP DP  RH WIND       PRES   REMARKS
BURLINGTON     MOSUNNY   50  29  44 S23G30    30.11S
CEDAR RAPIDS   MOSUNNY   48  28  46 SE22G33   30.01F
DES MOINES     CLOUDY    58  28  32 S28G35    29.87F
KIRKSVILLE     MOSUNNY   54  29  38 S22G28    30.04F
OTTUMWA        PTSUNNY   52  30  43 S21G30    29.98S
ST LOUIS       PTSUNNY   50  25  37 S15G28    30.25S
$$


CITY           SKY/WX    TMP DP  RH WIND       PRES   REMARKS
TERRE HAUTE    SUNNY     43  24  47 SE13G21   30.36S
EVANSVILLE     MOSUNNY   45  24  43 E13G18    30.37R
INDIANAPOLIS   MOSUNNY   41  21  44 SE15      30.37S WCI  33
LAFAYETTE      SUNNY     42  21  43 SE13      30.36S
MADISON        CLOUDY    43  25  49 S23G33    30.18F WCI  34
MILWAUKEE      PTSUNNY   40  27  59 SE17      30.28F WCI  31
$$




USA.gov is the U.S. government's official web portal to all federal, state and local government web resources and services.